This is the latest recevied weather packets stored in our database for station/object SP1BMW-13. If no packets are shown the sender has not sent any weather packets the latest 10 day(s).
| Time | Temp. | Humidity | Pressure | Rain* | Wind** | Luminosity | Snow |
|---|---|---|---|---|---|---|---|
| 1788094837 | 26.11° C | 50% | 1007.8 hPa | 0 mm | 0.45 m/s, 61° | 150 W/m² | - |
| 1788094777 | 26.11° C | 51% | 1007.7 hPa | 0 mm | 1.79 m/s, 209° | 137 W/m² | - |
| 1788094717 | 26.11° C | 53% | 1007.7 hPa | 0 mm | 2.24 m/s, 254° | 181 W/m² | - |
| 1788094658 | 26.11° C | 53% | 1007.8 hPa | 0 mm | 0.45 m/s, 265° | 567 W/m² | - |
| 1788094598 | 25.56° C | 53% | 1007.7 hPa | 0 mm | 0.89 m/s, 241° | 571 W/m² | - |
| 1788094543 | 25.56° C | 53% | 1007.6 hPa | 0 mm | 1.34 m/s, 244° | 572 W/m² | - |
| 1788094477 | 25° C | 54% | 1007.6 hPa | 0 mm | 0.89 m/s, 239° | 578 W/m² | - |
| 1788094417 | 25° C | 55% | 1007.8 hPa | 0 mm | 0.45 m/s, 234° | 588 W/m² | - |
| 1788094358 | 24.44° C | 56% | 1007.6 hPa | 0 mm | 1.34 m/s, 232° | 611 W/m² | - |
| 1788094297 | 24.44° C | 58% | 1007.7 hPa | 0 mm | 0.45 m/s, 315° | 643 W/m² | - |
| 1788094237 | 24.44° C | 58% | 1007.9 hPa | 0 mm | 0 m/s | 669 W/m² | - |
| 1788094177 | 23.89° C | 58% | 1007.8 hPa | 0 mm | 0 m/s | 702 W/m² | - |
| 1788094120 | 23.89° C | 58% | 1007.7 hPa | 0 mm | 0.45 m/s, 278° | 456 W/m² | - |
| 1788094057 | 23.89° C | 57% | 1007.9 hPa | 0 mm | 0.45 m/s, 97° | 258 W/m² | - |
| 1788093997 | 23.89° C | 57% | 1007.9 hPa | 0 mm | 1.34 m/s, 266° | 215 W/m² | - |
| 1788093937 | 23.89° C | 57% | 1007.7 hPa | 0 mm | 1.34 m/s, 233° | 201 W/m² | - |
| 1788093877 | 23.89° C | 57% | 1007.9 hPa | 0 mm | 0.89 m/s, 290° | 177 W/m² | - |
| 1788093817 | 23.89° C | 57% | 1007.8 hPa | 0 mm | 1.79 m/s, 243° | 150 W/m² | - |
| 1788093757 | 23.89° C | 57% | 1007.9 hPa | 0 mm | 0.89 m/s, 241° | 131 W/m² | - |
| 1788093699 | 23.89° C | 56% | 1007.8 hPa | 0 mm | 0.89 m/s, 325° | 109 W/m² | - |
| 1788093637 | 24.44° C | 56% | 1007.9 hPa | 0 mm | 0.89 m/s, 326° | 89 W/m² | - |
| 1788093579 | 24.44° C | 57% | 1007.7 hPa | 0 mm | 0 m/s | 74 W/m² | - |
| 1788093520 | 24.44° C | 56% | 1007.7 hPa | 0 mm | 0.89 m/s, 292° | 58 W/m² | - |
| 1788093457 | 24.44° C | 56% | 1007.6 hPa | 0 mm | 0.45 m/s, 198° | 48 W/m² | - |
| 1788093397 | 24.44° C | 54% | 1007.7 hPa | 0 mm | 0.89 m/s, 243° | 42 W/m² | - |
* Rain latest hour (hover to see other rain measurements)
** Current wind speed in m/s (hover to see current wind gust speed)